Weather History for Florence, Italy

Change the Weather History Date:

Sunday, March 24, 2013

  Actual Average Record
Temperature  
Mean Temperature 56 °F -  
Max Temperature 62 °F 65 °F 75 °F (2001)
Min Temperature 50 °F 45 °F 33 °F (1999)
Degree Days  
Heating Degree Days 9    
Growing Degree Days 6 (Base 50)    
Moisture  
Dew Point 47 °F    
Average Humidity 76    
Maximum Humidity 94    
Minimum Humidity 52    
Precipitation  
Precipitation 0.00 in 0.10 in - ()
Sea Level Pressure  
Sea Level Pressure 29.63 in    
Wind  
Wind Speed 4 mph ()    
Max Wind Speed 14 mph    
Max Gust Speed 29 mph    
Visibility 5.8 miles    
Events Rain    
Averages and records for this station are not official NWS values.
T = Trace of Precipitation, MM = Missing Value Source: Averaged Metar Reports

Daily Weather History Graph

Daily Weather History Graph

Search for Another Location

Airport:

Trip Planner

Search our weather history database for the weather conditions in past years. The results will help you decide how hot, cold, wet, or windy it might be!

Date:

Astronomy

Mar. 24, 2013 Rise Set
Actual Time 6:11 AM CET 6:32 PM CET
Civil Twilight 5:42 AM CET 7:01 PM CET
Nautical Twilight 5:08 AM CET 7:35 PM CET
Astronomical Twilight 4:33 AM CET 8:10 PM CET
Moon 3:38 PM CET (3/24) 4:17 AM CET (3/24)
Length of Visible Light 13h 18m
Length of Day
12h 21m
Waxing Gibbous, 90% of the Moon is Illuminated
Mar 24
Waxing Gibbous
Mar 27
Full
Apr 3
Last Quarter
Apr 10
New
Apr 18
First Quarter

Hourly Weather History & Observations

Time (CET) Temp. Dew Point Humidity Pressure Visibility Wind Dir Wind Speed Gust Speed Precip Events Conditions
12:20 AM 51.8 °F 46.4 °F 82% 29.77 in 6.2 mi ESE 3.5 mph - N/A   Mostly Cloudy
12:50 AM 51.8 °F 46.4 °F 82% 29.77 in 6.2 mi Variable 1.2 mph - N/A   Mostly Cloudy
1:20 AM 51.8 °F 48.2 °F 88% 29.77 in 6.2 mi Variable 2.3 mph - N/A   Mostly Cloudy
1:50 AM 50.0 °F 46.4 °F 87% 29.74 in 6.2 mi East 3.5 mph - N/A   Mostly Cloudy
2:20 AM 51.8 °F 48.2 °F 88% 29.74 in 6.2 mi Variable 2.3 mph - N/A Rain Light Rain
2:50 AM 51.8 °F 48.2 °F 88% 29.74 in 6.2 mi SSW 3.5 mph - N/A Rain Light Rain
3:20 AM 50.0 °F 48.2 °F 94% 29.74 in 6.2 mi Variable 2.3 mph - N/A Rain Light Rain
3:50 AM 50.0 °F 48.2 °F 94% 29.71 in 5.0 mi WNW 3.5 mph - N/A Rain Light Rain
4:20 AM 50.0 °F 48.2 °F 94% 29.71 in 3.7 mi Variable 2.3 mph - N/A Rain Rain
4:50 AM 50.0 °F 48.2 °F 94% 29.71 in 3.7 mi Variable 1.2 mph - N/A Rain Rain
5:20 AM 50.0 °F 48.2 °F 94% 29.68 in 3.7 mi South 4.6 mph - N/A Rain Light Rain
5:50 AM 50.0 °F 48.2 °F 94% 29.68 in 3.7 mi South 4.6 mph - N/A   Mostly Cloudy
6:20 AM 50.0 °F 48.2 °F 94% 29.68 in 5.0 mi SSW 3.5 mph - N/A   Mostly Cloudy
6:50 AM 50.0 °F 48.2 °F 94% 29.68 in 5.0 mi Variable 2.3 mph - N/A   Scattered Clouds
7:20 AM 50.0 °F 48.2 °F 94% 29.68 in 5.0 mi SSW 4.6 mph - N/A   Scattered Clouds
7:50 AM 50.0 °F 48.2 °F 94% 29.68 in 6.2 mi SW 4.6 mph - N/A   Scattered Clouds
8:20 AM 51.8 °F 50.0 °F 94% 29.68 in 6.2 mi SSW 3.5 mph - N/A   Mostly Cloudy
8:50 AM 55.4 °F 48.2 °F 77% 29.68 in 6.2 mi SW 5.8 mph - N/A   Scattered Clouds
9:20 AM 55.4 °F 48.2 °F 77% 29.65 in 6.2 mi SW 5.8 mph - N/A   Scattered Clouds
9:50 AM 57.2 °F 46.4 °F 67% 29.65 in 6.2 mi SSW 6.9 mph - N/A   Scattered Clouds
10:20 AM 59.0 °F 46.4 °F 63% 29.65 in 6.2 mi Variable 2.3 mph - N/A   Partly Cloudy
10:50 AM 60.8 °F 46.4 °F 59% 29.62 in 6.2 mi SSW 3.5 mph - N/A   Partly Cloudy
11:20 AM 60.8 °F 44.6 °F 55% 29.62 in 6.2 mi Variable 2.3 mph - N/A   Partly Cloudy
11:50 AM 62.6 °F 46.4 °F 55% 29.62 in 6.2 mi Variable 5.8 mph 17.3 mph N/A   Partly Cloudy
12:20 PM 60.8 °F 42.8 °F 52% 29.62 in 6.2 mi Variable 2.3 mph - N/A   Scattered Clouds
12:50 PM 59.0 °F 46.4 °F 63% 29.62 in 6.2 mi NNW 8.1 mph - N/A   Light Drizzle
1:20 PM 57.2 °F 46.4 °F 67% 29.59 in 6.2 mi NNE 6.9 mph - N/A   Light Drizzle
1:50 PM 57.2 °F 46.4 °F 67% 29.59 in 6.2 mi NNE 12.7 mph - N/A   Light Drizzle
2:20 PM 57.2 °F 46.4 °F 67% 29.56 in 6.2 mi NNE 13.8 mph - N/A   Scattered Clouds
2:50 PM 59.0 °F 46.4 °F 63% 29.59 in 6.2 mi Variable 6.9 mph - N/A   Scattered Clouds
3:20 PM 59.0 °F 44.6 °F 59% 29.59 in 6.2 mi East 4.6 mph 16.1 mph N/A   Scattered Clouds
3:50 PM 57.2 °F 46.4 °F 67% 29.53 in 6.2 mi North 12.7 mph 28.8 mph N/A   Scattered Clouds
4:20 PM 57.2 °F 46.4 °F 67% 29.56 in 6.2 mi Variable 8.1 mph 19.6 mph N/A   Scattered Clouds
4:50 PM 57.2 °F 46.4 °F 67% 29.56 in 6.2 mi Variable 8.1 mph - N/A   Scattered Clouds
5:20 PM 57.2 °F 44.6 °F 63% 29.56 in 6.2 mi Variable 5.8 mph - N/A   Scattered Clouds
5:50 PM 55.4 °F 44.6 °F 67% 29.53 in 6.2 mi SW 6.9 mph - N/A   Scattered Clouds
6:20 PM 55.4 °F 44.6 °F 67% 29.56 in 6.2 mi Variable 4.6 mph - N/A   Scattered Clouds
6:50 PM 55.4 °F 44.6 °F 67% 29.56 in 6.2 mi Variable 6.9 mph 20.7 mph N/A Rain Light Rain
7:20 PM 55.4 °F 46.4 °F 72% 29.59 in 6.2 mi Variable 2.3 mph - N/A   Drizzle
7:50 PM 53.6 °F 46.4 °F 77% 29.59 in 5.0 mi Variable 6.9 mph - N/A Rain Light Rain
8:20 PM 53.6 °F 46.4 °F 77% 29.56 in 5.0 mi North 11.5 mph - N/A Rain Light Rain
8:50 PM 51.8 °F 46.4 °F 82% 29.56 in 6.2 mi Variable 3.5 mph - N/A   Mostly Cloudy
9:20 PM 53.6 °F 46.4 °F 77% 29.53 in 6.2 mi Variable 5.8 mph - N/A   Scattered Clouds
9:50 PM 53.6 °F 44.6 °F 72% 29.53 in 6.2 mi Variable 6.9 mph - N/A   Scattered Clouds
10:20 PM 53.6 °F 44.6 °F 72% 29.53 in 6.2 mi Variable 4.6 mph - N/A   Scattered Clouds
10:50 PM 53.6 °F 44.6 °F 72% 29.50 in 6.2 mi Variable 5.8 mph - N/A   Scattered Clouds
11:20 PM 53.6 °F 42.8 °F 67% 29.50 in 6.2 mi Variable 5.8 mph - N/A   Scattered Clouds